Weather History for KOLE - August, 2013

Change the Weather History Date:

Thursday, August 22, 2013

  Actual Average (KBFD) Record (KBFD)
Temperature  
Mean Temperature 68 °F 63 °F  
Max Temperature 77 °F 75 °F 83 °F (1959)
Min Temperature 60 °F 52 °F 32 °F (1982)
Degree Days  
Heating Degree Days 0 1  
Month to date heating degree days 14  
Since 1 June heating degree days 223  
Since 1 July heating degree days 78  
Cooling Degree Days 4 1  
Month to date cooling degree days 43  
Year to date cooling degree days 167  
Since 1 June cooling degree days 157  
Growing Degree Days 18 (Base 50)    
Moisture  
Dew Point 62 °F    
Average Humidity 85    
Maximum Humidity 100    
Minimum Humidity 65    
Precipitation  
Precipitation 0.00 in 0.13 in 1.40 in (1987)
Month to date precipitation 2.96  
Year to date precipitation 28.80  
Sea Level Pressure  
Sea Level Pressure 30.07 in    
Wind  
Wind Speed 4 mph (WSW)    
Max Wind Speed 18 mph    
Max Gust Speed 29 mph    
Visibility 9 miles    
Events Fog , Rain , Thunderstorm    
T = Trace of Precipitation, MM = Missing Value Source: NWS Daily Summary

Daily Weather History Graph

Daily Weather History Graph

Search for Another Location

Airport or City:

Trip Planner

Search our weather history database for the weather conditions in past years. The results will help you decide how hot, cold, wet, or windy it might be!

Date:

Astronomy

Aug. 22, 2013 Rise Set
Actual Time 6:28 AM EDT 8:03 PM EDT
Civil Twilight 5:58 AM EDT 8:32 PM EDT
Nautical Twilight 5:23 AM EDT 9:08 PM EDT
Astronomical Twilight 4:44 AM EDT 9:46 PM EDT
Moon 8:42 PM EDT (8/22) 8:18 AM EDT (8/22)
Length of Visible Light 14h 33m
Length of Day
13h 34m
Waning Gibbous, 97% of the Moon is Illuminated
Aug 22
Waning Gibbous
Aug 28
Last Quarter
Sep 5
New
Sep 12
First Quarter
Sep 19
Full

Hourly Weather History & Observations

Time (EDT) Temp. Dew Point Humidity Pressure Visibility Wind Dir Wind Speed Gust Speed Precip Events Conditions
12:15 AM 66.2 °F 59.0 °F 78% 30.13 in 10.0 mi WSW 3.5 mph - N/A   Clear
12:35 AM 68.0 °F 59.0 °F 73% 30.13 in 10.0 mi SW 3.5 mph - N/A   Clear
12:55 AM 66.2 °F 59.0 °F 78% 30.13 in 10.0 mi SW 3.5 mph - N/A   Clear
1:15 AM 64.4 °F 59.0 °F 83% 30.12 in 10.0 mi SW 3.5 mph - N/A   Clear
1:35 AM 62.6 °F 59.0 °F 88% 30.14 in 10.0 mi SSW 3.5 mph - N/A   Clear
1:55 AM 62.6 °F 59.0 °F 88% 30.13 in 10.0 mi Calm Calm - N/A   Clear
2:15 AM 62.6 °F 59.0 °F 88% 30.13 in 10.0 mi Calm Calm - N/A   Clear
2:35 AM 62.6 °F 59.0 °F 88% 30.12 in 10.0 mi SSW 3.5 mph - N/A   Clear
2:55 AM 62.6 °F 59.0 °F 88% 30.12 in 10.0 mi Calm Calm - N/A   Clear
3:15 AM 64.4 °F 59.0 °F 83% 30.11 in 10.0 mi SW 3.5 mph - N/A   Clear
3:35 AM 62.6 °F 59.0 °F 88% 30.10 in 10.0 mi SW 4.6 mph - N/A   Clear
3:55 AM 64.4 °F 59.0 °F 83% 30.10 in 10.0 mi WSW 3.5 mph - N/A   Clear
4:15 AM 62.6 °F 59.0 °F 88% 30.09 in 10.0 mi SSW 3.5 mph - N/A   Clear
4:35 AM 60.8 °F 59.0 °F 94% 30.09 in 10.0 mi SW 3.5 mph - N/A   Clear
4:55 AM 60.8 °F 59.0 °F 94% 30.08 in 10.0 mi SSW 5.8 mph - N/A   Clear
5:15 AM 60.8 °F 59.0 °F 94% 30.08 in 10.0 mi SSW 4.6 mph - N/A   Clear
5:35 AM 60.8 °F 59.0 °F 94% 30.08 in 10.0 mi SSW 8.1 mph - N/A   Clear
5:55 AM 60.8 °F 59.0 °F 94% 30.08 in 10.0 mi SSW 5.8 mph - N/A   Clear
6:15 AM 60.8 °F 59.0 °F 94% 30.08 in 7.0 mi Calm Calm - N/A   Clear
6:35 AM 60.8 °F 59.0 °F 94% 30.08 in 7.0 mi SSW 4.6 mph - N/A   Clear
6:55 AM 60.8 °F 59.0 °F 94% 30.08 in 7.0 mi SSW 5.8 mph - N/A   Clear
7:15 AM 60.8 °F 59.0 °F 94% 30.09 in 5.0 mi Calm Calm - N/A   Clear
7:35 AM 60.8 °F 59.0 °F 94% 30.10 in 5.0 mi SSW 4.6 mph - N/A   Clear
7:55 AM 60.8 °F 59.0 °F 94% 30.09 in 7.0 mi SSW 6.9 mph - N/A   Clear
8:15 AM 62.6 °F 59.0 °F 88% 30.09 in 7.0 mi SSW 8.1 mph - N/A   Clear
8:35 AM 62.6 °F 60.8 °F 94% 30.09 in 7.0 mi SSW 8.1 mph - N/A   Clear
8:55 AM 62.6 °F 60.8 °F 94% 30.09 in 7.0 mi WSW 3.5 mph - N/A   Clear
9:15 AM 66.2 °F 62.6 °F 88% 30.09 in 10.0 mi SW 4.6 mph - N/A   Clear
9:35 AM 68.0 °F 62.6 °F 83% 30.09 in 10.0 mi SW 4.6 mph - N/A   Clear
9:55 AM 69.8 °F 62.6 °F 78% 30.09 in 10.0 mi SW 4.6 mph - N/A   Scattered Clouds
10:15 AM 69.8 °F 64.4 °F 83% 30.08 in 10.0 mi SW 5.8 mph - N/A   Scattered Clouds
10:35 AM 71.6 °F 64.4 °F 78% 30.08 in 10.0 mi SW 4.6 mph - N/A   Clear
10:55 AM 73.4 °F 64.4 °F 73% 30.08 in 10.0 mi WSW 5.8 mph - N/A   Scattered Clouds
11:15 AM 71.6 °F 64.4 °F 78% 30.08 in 10.0 mi West 6.9 mph - N/A   Scattered Clouds
11:35 AM 73.4 °F 64.4 °F 73% 30.08 in 10.0 mi West 5.8 mph - N/A   Scattered Clouds
11:55 AM 71.6 °F 64.4 °F 78% 30.07 in 10.0 mi West 5.8 mph - N/A   Scattered Clouds
12:15 PM 75.2 °F 64.4 °F 69% 30.06 in 10.0 mi WSW 5.8 mph - N/A   Scattered Clouds
12:35 PM 77.0 °F 64.4 °F 65% 30.06 in 10.0 mi WSW 6.9 mph - N/A   Overcast
12:55 PM 73.4 °F 62.6 °F 69% 30.05 in 10.0 mi Calm Calm - N/A   Overcast
1:15 PM 73.4 °F 62.6 °F 69% 30.04 in 10.0 mi WNW 5.8 mph - N/A   Mostly Cloudy
1:35 PM 77.0 °F 64.4 °F 65% 30.03 in 10.0 mi WSW 4.6 mph - N/A   Scattered Clouds
1:55 PM 77.0 °F 64.4 °F 65% 30.02 in 10.0 mi WSW 5.8 mph - N/A   Scattered Clouds
2:15 PM 77.0 °F 64.4 °F 65% 30.02 in 10.0 mi WSW 4.6 mph - N/A Thunderstorm Scattered Clouds
2:35 PM 73.4 °F 62.6 °F 69% 30.03 in 10.0 mi NW 18.4 mph 28.8 mph N/A Rain , Thunderstorm Light Thunderstorms and Rain
2:55 PM 64.4 °F 62.6 °F 94% 30.02 in 5.0 mi Calm Calm - N/A Rain , Thunderstorm Light Thunderstorms and Rain
3:15 PM 69.8 °F 64.4 °F 83% 30.02 in 10.0 mi Calm Calm - N/A Thunderstorm Scattered Clouds
3:35 PM 68.0 °F 66.2 °F 94% 30.02 in 10.0 mi WNW 9.2 mph - N/A   Mostly Cloudy
3:55 PM 69.8 °F 64.4 °F 83% 30.02 in 10.0 mi WNW 8.1 mph 17.3 mph N/A   Mostly Cloudy
4:15 PM 69.8 °F 64.4 °F 83% 30.03 in 10.0 mi WNW 8.1 mph 17.3 mph N/A   Scattered Clouds
4:35 PM 69.8 °F 64.4 °F 83% 30.02 in 10.0 mi NW 5.8 mph 16.1 mph N/A   Overcast
4:55 PM 71.6 °F 64.4 °F 78% 30.01 in 10.0 mi NW 3.5 mph - N/A   Mostly Cloudy
5:15 PM 71.6 °F 62.6 °F 73% 30.02 in 10.0 mi WNW 12.7 mph 19.6 mph N/A   Scattered Clouds
5:35 PM 71.6 °F 62.6 °F 73% 30.01 in 10.0 mi WNW 6.9 mph 17.3 mph N/A   Scattered Clouds
5:55 PM 69.8 °F 62.6 °F 78% 30.01 in 10.0 mi WNW 8.1 mph - N/A   Mostly Cloudy
6:15 PM 71.6 °F 62.6 °F 73% 30.01 in 10.0 mi WNW 5.8 mph - N/A   Mostly Cloudy
6:35 PM 71.6 °F 62.6 °F 73% 30.01 in 10.0 mi WNW 6.9 mph - N/A   Mostly Cloudy
6:55 PM 69.8 °F 62.6 °F 78% 30.02 in 10.0 mi WNW 5.8 mph - N/A   Mostly Cloudy
7:15 PM 68.0 °F 62.6 °F 83% 30.02 in 10.0 mi West 4.6 mph - N/A   Scattered Clouds
7:35 PM 68.0 °F 62.6 °F 83% 30.02 in 10.0 mi WNW 3.5 mph - N/A   Mostly Cloudy
7:55 PM 68.0 °F 62.6 °F 83% 30.03 in 10.0 mi Calm Calm - N/A   Overcast
8:15 PM 68.0 °F 62.6 °F 83% 30.03 in 10.0 mi WNW 3.5 mph - N/A   Mostly Cloudy
8:35 PM 66.2 °F 62.6 °F 88% 30.03 in 10.0 mi NW 4.6 mph - N/A   Scattered Clouds
8:55 PM 66.2 °F 62.6 °F 88% 30.04 in 10.0 mi NW 5.8 mph - N/A   Scattered Clouds
9:15 PM 64.4 °F 62.6 °F 94% 30.05 in 10.0 mi Calm Calm - N/A   Mostly Cloudy
9:35 PM 64.4 °F 64.4 °F 100% 30.05 in 10.0 mi NNW 3.5 mph - N/A   Overcast
9:55 PM 64.4 °F 64.4 °F 100% 30.05 in 7.0 mi Calm Calm - N/A   Scattered Clouds
10:15 PM 64.4 °F 64.4 °F 100% 30.06 in 5.0 mi Calm Calm - N/A   Clear
10:35 PM 64.4 °F 62.6 °F 94% 30.06 in 3.0 mi NNW 3.5 mph - N/A   Clear
10:55 PM 64.4 °F 64.4 °F 100% 30.07 in 2.0 mi NNW 3.5 mph - N/A   Mostly Cloudy
11:15 PM 62.6 °F 62.6 °F 100% 30.07 in 1.2 mi NW 3.5 mph - N/A   Overcast
11:35 PM 62.6 °F 62.6 °F 100% 30.08 in 0.5 mi Calm Calm - N/A Fog Fog
11:55 PM 62.6 °F 62.6 °F 100% 30.08 in 0.2 mi Calm Calm - N/A Fog Fog